DW7267 Weather Reports


Display with metric or nautical units.
time (UTC)temp
F
wind
direction
speed
MPH
gust
MPH
rain 1hr
in
rain 24hr
in
rain mn
in
humidity
%
barometer
mb
20260903065205 56 106 0.0 1.0 0.00 0.00 0.00 88 1021.9
20260903064705 56 107 0.0 1.0 0.00 0.00 0.00 88 1021.9
20260903064204 56 107 0.0 1.0 0.00 0.00 0.00 88 1022.0
20260903063659 56 107 0.0 1.0 0.00 0.00 0.00 88 1021.9
20260903063155 56 108 0.0 1.0 0.00 0.00 0.00 88 1022.0
20260903062925 56 107 0.0 0.0 0.00 0.00 0.00 88 1022.0
20260903062153 57 107 0.0 0.0 0.00 0.00 0.00 88 1021.9
20260903061652 57 107 0.0 0.0 0.00 0.00 0.00 88 1022.0
20260903061146 57 107 0.0 1.0 0.00 0.00 0.00 88 1022.0
20260903060643 57 107 0.0 1.0 0.00 0.00 0.00 88 1022.2
20260903060142 57 107 0.0 1.0 0.00 0.00 0.00 88 1022.2
20260903055640 57 107 0.0 1.0 0.00 0.00 0.00 88 1022.0
20260903055140 57 235 0.0 0.0 0.00 0.00 0.00 87 1022.0
20260903054634 57 235 0.0 0.0 0.00 0.00 0.00 87 1022.0
20260903054133 58 235 0.0 0.0 0.00 0.00 0.00 87 1021.9
20260903053631 58 235 0.0 0.0 0.00 0.00 0.00 87 1022.0
20260903053129 58 236 0.0 0.0 0.00 0.00 0.00 87 1022.0
20260903052628 58 235 0.0 0.0 0.00 0.00 0.00 86 1022.2
20260903052125 58 235 0.0 0.0 0.00 0.00 0.00 86 1022.2
20260903051624 58 235 0.0 0.0 0.00 0.00 0.00 86 1022.2
20260903051122 58 236 0.0 0.0 0.00 0.00 0.00 86 1022.2
20260903050623 58 236 0.0 1.0 0.00 0.00 0.00 85 1022.3
20260903050123 59 235 0.0 1.0 0.00 0.00 0.00 85 1022.3
20260903045624 59 235 0.0 1.0 0.00 0.00 0.00 85 1022.2
20260903045115 59 235 0.0 1.0 0.00 0.00 0.00 85 1022.2
20260903044614 59 235 0.0 0.0 0.00 0.00 0.00 85 1022.3
20260903044112 59 235 0.0 0.0 0.00 0.00 0.00 84 1022.3
20260903043611 60 235 0.0 0.0 0.00 0.00 0.00 83 1022.4
20260903043112 60 236 0.0 0.0 0.00 0.00 0.00 83 1022.3
20260903042608 60 236 0.0 0.0 0.00 0.00 0.00 83 1022.3
20260903041609 60 235 0.0 0.0 0.00 0.00 0.00 81 1022.3
20260903041107 61 235 0.0 0.0 0.00 0.00 0.00 81 1022.3
20260903040605 61 235 0.0 0.0 0.00 0.00 0.00 81 1022.2
20260903040104 61 235 0.0 0.0 0.00 0.00 0.00 80 1022.0
20260903035559 61 236 0.0 0.0 0.00 0.00 0.00 81 1022.2
20260903035101 62 235 0.0 0.0 0.00 0.00 0.00 80 1022.0
20260903034600 62 235 0.0 0.0 0.00 0.00 0.00 80 1022.0
20260903034333 62 235 0.0 0.0 0.00 0.00 0.00 79 1022.0
20260903033601 62 235 0.0 0.0 0.00 0.00 0.00 79 1022.0
20260903033101 62 235 0.0 0.0 0.00 0.00 0.00 78 1021.9
20260903032556 63 235 0.0 0.0 0.00 0.00 0.00 77 1021.9
20260903032056 63 235 0.0 0.0 0.00 0.00 0.00 76 1021.8
20260903031055 64 235 0.0 0.0 0.00 0.00 0.00 73 1021.7
20260903030826 64 235 0.0 0.0 0.00 0.00 0.00 73 1021.6
20260903030057 65 235 0.0 0.0 0.00 0.00 0.00 71 1021.5
20260903025551 65 235 0.0 0.0 0.00 0.00 0.00 69 1021.3
20260903025052 66 235 0.0 0.0 0.00 0.00 0.00 68 1021.3
20260903024552 66 235 0.0 0.0 0.00 0.00 0.00 67 1021.2
20260903024053 67 235 0.0 0.0 0.00 0.00 0.00 66 1021.2
20260903023552 67 235 0.0 0.0 0.00 0.00 0.00 64 1021.1
20260903023053 68 235 0.0 0.0 0.00 0.00 0.00 64 1021.1
20260903022819 68 235 0.0 0.0 0.00 0.00 0.00 63 1021.0
20260903022047 69 235 0.0 0.0 0.00 0.00 0.00 62 1021.0
20260903021548 70 235 0.0 0.0 0.00 0.00 0.00 60 1020.9
20260903021049 70 235 0.0 0.0 0.00 0.00 0.00 58 1020.7
20260903020547 71 235 0.0 0.0 0.00 0.00 0.00 57 1020.9
20260903020049 71 235 0.0 0.0 0.00 0.00 0.00 56 1020.7
20260903015544 72 235 0.0 1.0 0.00 0.00 0.00 57 1020.9
20260903015045 72 235 0.0 1.0 0.00 0.00 0.00 54 1020.7
20260903014543 73 235 0.0 3.0 0.00 0.00 0.00 53 1020.9
20260903014043 73 235 0.0 3.0 0.00 0.00 0.00 52 1020.9
20260903013817 74 235 1.0 4.0 0.00 0.00 0.00 51 1020.9
20260903013046 74 250 1.0 5.0 0.00 0.00 0.00 50 1020.9
20260903012540 75 254 1.0 5.0 0.00 0.00 0.00 50 1020.9
20260903012039 75 247 1.0 5.0 0.00 0.00 0.00 49 1020.9
20260903011541 76 158 1.0 5.0 0.00 0.00 0.00 48 1021.0
20260903011041 76 259 1.0 5.0 0.00 0.00 0.00 46 1021.0
20260903010815 77 183 1.0 5.0 0.00 0.00 0.00 45 1021.0
20260903010042 78 171 2.0 5.0 0.00 0.00 0.00 44 1021.0
20260903005537 78 276 1.0 6.0 0.00 0.00 0.00 44 1021.0
20260903005037 78 216 1.0 6.0 0.00 0.00 0.00 44 1021.0
20260903004535 78 221 2.0 7.0 0.00 0.00 0.00 44 1021.1
20260903004036 78 209 1.0 7.0 0.00 0.00 0.00 45 1021.1
20260903003536 78 246 1.0 8.0 0.00 0.00 0.00 47 1021.1
20260903003037 78 254 2.0 8.0 0.00 0.00 0.00 45 1021.1
20260903002532 78 224 1.0 7.0 0.00 0.00 0.00 44 1021.1
20260903002031 79 271 1.0 7.0 0.00 0.00 0.00 45 1021.1
20260903001533 79 266 1.0 9.0 0.00 0.00 0.00 43 1021.2
20260903001031 79 250 2.0 9.0 0.00 0.00 0.00 44 1021.2
20260903000533 79 149 3.0 9.0 0.00 0.00 0.00 43 1021.2
20260903000032 79 242 2.0 9.0 0.00 0.00 0.00 44 1021.1
20260902235528 80 259 2.0 8.0 0.00 0.00 0.00 43 1021.1
20260902235029 79 141 3.0 10.0 0.00 0.00 0.00 44 1021.2
20260902234528 80 264 3.0 10.0 0.00 0.00 0.00 42 1021.3
20260902234028 80 252 2.0 9.0 0.00 0.00 0.00 44 1021.3
20260902233528 79 212 2.0 8.0 0.00 0.00 0.00 45 1021.3
20260902233023 79 241 2.0 8.0 0.00 0.00 0.00 47 1021.3
20260902232523 78 160 2.0 8.0 0.00 0.00 0.00 47 1021.3
20260902232026 78 227 3.0 8.0 0.00 0.00 0.00 48 1021.5
20260902231524 78 266 3.0 9.0 0.00 0.00 0.00 47 1021.5
20260902231024 79 276 3.0 9.0 0.00 0.00 0.00 45 1021.5
20260902230525 79 252 3.0 10.0 0.00 0.00 0.00 45 1021.5
20260902230019 79 243 3.0 11.0 0.00 0.00 0.00 46 1021.7
20260902225520 79 231 3.0 11.0 0.00 0.00 0.00 47 1021.7
20260902225020 79 162 3.0 10.0 0.00 0.00 0.00 47 1021.7
20260902224519 80 226 2.0 10.0 0.00 0.00 0.00 46 1021.8
20260902224021 79 248 3.0 10.0 0.00 0.00 0.00 48 1021.8
20260902223521 78 271 4.0 10.0 0.00 0.00 0.00 47 1021.8
20260902223246 78 264 3.0 10.0 0.00 0.00 0.00 48 1021.9
20260902222517 78 206 2.0 8.0 0.00 0.00 0.00 48 1021.8
20260902222016 77 256 2.0 8.0 0.00 0.00 0.00 50 1022.0
20260902221517 78 245 3.0 9.0 0.00 0.00 0.00 50 1021.9
20260902221017 78 251 4.0 15.0 0.00 0.00 0.00 49 1022.0
20260902220518 78 231 4.0 15.0 0.00 0.00 0.00 51 1021.9
20260902220014 78 213 3.0 13.0 0.00 0.00 0.00 49 1022.2
20260902215512 78 235 3.0 13.0 0.00 0.00 0.00 50 1022.2
20260902215012 78 271 3.0 9.0 0.00 0.00 0.00 51 1022.0
20260902214513 78 157 3.0 9.0 0.00 0.00 0.00 50 1022.3
20260902214013 78 261 3.0 10.0 0.00 0.00 0.00 49 1022.3
20260902213513 78 256 3.0 10.0 0.00 0.00 0.00 48 1022.3
20260902213008 78 234 3.0 10.0 0.00 0.00 0.00 52 1022.4
20260902212508 77 227 3.0 14.0 0.00 0.00 0.00 54 1022.4
20260902211508 78 230 4.0 15.0 0.00 0.00 0.00 53 1022.5
20260902211008 78 264 4.0 15.0 0.00 0.00 0.00 54 1022.5
20260902210509 77 189 4.0 12.0 0.00 0.00 0.00 54 1022.6
20260902210004 77 227 4.0 13.0 0.00 0.00 0.00 54 1022.8
20260902205504 76 261 3.0 13.0 0.00 0.00 0.00 55 1022.9
20260902205004 76 321 3.0 10.0 0.00 0.00 0.00 57 1022.9
20260902204504 75 265 2.0 13.0 0.00 0.00 0.00 57 1022.9
20260902204005 76 244 2.0 13.0 0.00 0.00 0.00 54 1022.9
20260902203505 76 247 3.0 14.0 0.00 0.00 0.00 55 1023.0
20260902203231 76 254 4.0 14.0 0.00 0.00 0.00 54 1023.0
20260902202501 77 222 4.0 12.0 0.00 0.00 0.00 53 1023.1
20260902202001 76 304 3.0 12.0 0.00 0.00 0.00 54 1023.1
20260902201500 76 251 3.0 9.0 0.00 0.00 0.00 56 1023.0
20260902201000 76 164 3.0 9.0 0.00 0.00 0.00 56 1023.1
20260902200501 75 267 2.0 10.0 0.00 0.00 0.00 57 1023.2
20260902200001 75 147 2.0 13.0 0.00 0.00 0.00 55 1023.2
20260902195500 75 250 2.0 13.0 0.00 0.00 0.00 57 1023.4
20260902195001 76 230 3.0 13.0 0.00 0.00 0.00 55 1023.5
20260902194458 76 247 3.0 13.0 0.00 0.00 0.00 57 1023.5
20260902194231 75 232 2.0 10.0 0.00 0.00 0.00 57 1023.5
20260902193459 75 152 3.0 7.0 0.00 0.00 0.00 55 1023.6
20260902192453 76 247 3.0 14.0 0.00 0.00 0.00 54 1023.7
20260902191950 77 157 3.0 16.0 0.00 0.00 0.00 55 1023.7
20260902191449 76 220 4.0 16.0 0.00 0.00 0.00 57 1023.7
20260902190950 76 273 4.0 12.0 0.00 0.00 0.00 55 1023.7
20260902190451 76 246 4.0 12.0 0.00 0.00 0.00 56 1023.8
20260902185953 76 174 3.0 8.0 0.00 0.00 0.00 55 1023.8
20260902185447 75 162 2.0 8.0 0.00 0.00 0.00 56 1023.9
20260902184947 75 148 3.0 8.0 0.00 0.00 0.00 58 1023.9
20260902184445 75 267 2.0 8.0 0.00 0.00 0.00 56 1024.1
20260902182942 75 271 2.0 12.0 0.00 0.00 0.00 54 1024.2
20260902181943 76 152 3.0 14.0 0.00 0.00 0.00 57 1024.3
20260902181442 76 255 3.0 14.0 0.00 0.00 0.00 55 1024.3
20260902180942 76 244 3.0 14.0 0.00 0.00 0.00 56 1024.4
20260902180443 75 197 3.0 14.0 0.00 0.00 0.00 54 1024.4
20260902175943 75 148 3.0 9.0 0.00 0.00 0.00 57 1024.4
20260902175443 75 200 4.0 9.0 0.00 0.00 0.00 56 1024.5
20260902174943 75 255 3.0 9.0 0.00 0.00 0.00 58 1024.7
20260902174442 75 169 3.0 6.0 0.00 0.00 0.00 57 1024.7
20260902173942 75 112 3.0 6.0 0.00 0.00 0.00 60 1024.5
20260902173443 74 143 2.0 8.0 0.00 0.00 0.00 60 1024.4
20260902172944 74 126 2.0 8.0 0.00 0.00 0.00 58 1024.7
20260902172443 75 168 2.0 7.0 0.00 0.00 0.00 57 1024.7
20260902171937 75 195 3.0 7.0 0.00 0.00 0.00 55 1024.7
20260902171702 75 285 3.0 8.0 0.00 0.00 0.00 54 1024.5
20260902170933 75 230 3.0 10.0 0.00 0.00 0.00 55 1024.5
20260902170431 75 235 3.0 10.0 0.00 0.00 0.00 56 1024.5
20260902170202 75 133 3.0 9.0 0.00 0.00 0.00 54 1024.8
20260902164931 74 238 2.0 9.0 0.00 0.00 0.00 56 1024.5
20260902164425 74 234 2.0 8.0 0.00 0.00 0.00 57 1024.5
20260902163421 75 227 2.0 12.0 0.00 0.00 0.00 55 1024.5
20260902162919 75 148 2.0 12.0 0.00 0.00 0.00 57 1024.3
20260902162419 74 279 4.0 13.0 0.00 0.00 0.00 57 1024.3
20260902161915 74 147 4.0 13.0 0.00 0.00 0.00 57 1024.3
20260902161416 74 255 3.0 13.0 0.00 0.00 0.00 56 1024.3
20260902160917 74 155 4.0 8.0 0.00 0.00 0.00 59 1024.2
20260902160415 73 227 3.0 8.0 0.00 0.00 0.00 60 1024.2
20260902155913 74 84 2.0 9.0 0.00 0.00 0.00 60 1024.2
20260902155414 74 196 2.0 9.0 0.00 0.00 0.00 62 1024.2
20260902154906 74 231 2.0 9.0 0.00 0.00 0.00 61 1024.1
20260902154637 73 172 2.0 9.0 0.00 0.00 0.00 62 1024.1
20260902153906 73 143 2.0 9.0 0.00 0.00 0.00 62 1024.1
20260902153407 73 215 1.0 5.0 0.00 0.00 0.00 66 1024.1
20260902152907 73 235 1.0 5.0 0.00 0.00 0.00 66 1024.1
20260902152407 73 124 1.0 5.0 0.00 0.00 0.00 66 1024.1
20260902151901 72 152 1.0 9.0 0.00 0.00 0.00 68 1024.1
20260902151400 72 227 1.0 9.0 0.00 0.00 0.00 69 1024.1
20260902150901 71 154 1.0 7.0 0.00 0.00 0.00 71 1024.1
20260902150401 71 138 0.0 4.0 0.00 0.00 0.00 71 1024.1
20260902145901 70 135 1.0 5.0 0.00 0.00 0.00 74 1023.9
20260902145401 70 122 1.0 5.0 0.00 0.00 0.00 76 1023.9
20260902144859 69 161 1.0 4.0 0.00 0.00 0.00 76 1023.9
20260902144355 68 71 2.0 5.0 0.00 0.00 0.00 78 1023.8
20260902143855 68 98 1.0 5.0 0.00 0.00 0.00 80 1023.8
20260902143627 67 105 1.0 4.0 0.00 0.00 0.00 81 1023.8
20260902142856 66 102 1.0 4.0 0.00 0.00 0.00 83 1023.8
20260902142628 65 119 2.0 4.0 0.00 0.00 0.00 85 1023.8
20260902141848 64 100 1.0 4.0 0.00 0.00 0.00 89 1023.7
20260902141345 62 125 0.0 3.0 0.00 0.00 0.00 93 1023.7
20260902140845 61 88 1.0 3.0 0.00 0.00 0.00 94 1023.6
20260902140343 60 129 1.0 3.0 0.00 0.00 0.00 94 1023.6
20260902135845 59 186 0.0 3.0 0.00 0.00 0.00 93 1023.6
20260902135336 59 168 0.0 1.0 0.00 0.00 0.00 94 1023.5
20260902134837 59 111 0.0 1.0 0.00 0.00 0.00 94 1023.6
20260902134336 58 110 0.0 1.0 0.00 0.00 0.00 94 1023.5
20260902133837 58 111 0.0 1.0 0.00 0.00 0.00 94 1023.5
20260902133337 58 110 0.0 1.0 0.00 0.00 0.00 93 1023.4
20260902132838 58 110 0.0 1.0 0.00 0.00 0.00 93 1023.4
20260902132332 58 110 0.0 1.0 0.00 0.00 0.00 93 1023.4
20260902131833 58 111 0.0 1.0 0.00 0.00 0.00 93 1023.4
20260902131332 58 110 0.0 1.0 0.00 0.00 0.00 93 1023.2
20260902130833 58 110 0.0 1.0 0.00 0.00 0.00 92 1023.2
20260902130331 58 110 0.0 1.0 0.00 0.00 0.00 92 1023.2
20260902130103 58 110 0.0 1.0 0.00 0.00 0.00 92 1023.1
20260902125328 58 110 0.0 1.0 0.00 0.00 0.00 92 1023.1
20260902124828 59 110 0.0 1.0 0.00 0.00 0.00 92 1023.1
20260902124330 59 110 0.0 1.0 0.00 0.00 0.00 92 1023.1
20260902123827 59 110 0.0 1.0 0.00 0.00 0.00 92 1023.0
20260902123325 59 111 0.0 0.0 0.00 0.00 0.00 92 1023.0
20260902122826 59 111 0.0 0.0 0.00 0.00 0.00 92 1022.9
20260902122319 59 110 0.0 1.0 0.00 0.00 0.00 92 1022.9
20260902121817 60 110 0.0 1.0 0.00 0.00 0.00 92 1022.9
20260902121315 60 110 0.0 1.0 0.00 0.00 0.00 93 1022.9
20260902120813 59 110 0.0 1.0 0.00 0.00 0.00 94 1022.9
20260902120315 59 112 0.0 0.0 0.00 0.00 0.00 94 1022.9
20260902115807 59 112 0.0 0.0 0.00 0.00 0.00 94 1022.9
20260902115310 59 112 0.0 0.0 0.00 0.00 0.00 94 1022.9
20260902114806 59 112 0.0 0.0 0.00 0.00 0.00 94 1022.8
20260902114307 59 113 0.0 0.0 0.00 0.00 0.00 94 1022.9
20260902113807 59 112 0.0 0.0 0.00 0.00 0.00 94 1022.8
20260902113307 58 112 0.0 0.0 0.00 0.00 0.00 94 1022.9
20260902112802 58 113 0.0 0.0 0.00 0.00 0.00 95 1022.9
20260902112300 58 112 0.0 0.0 0.00 0.00 0.00 95 1022.8
20260902111802 58 113 0.0 0.0 0.00 0.00 0.00 94 1022.8
20260902111301 57 112 0.0 0.0 0.00 0.00 0.00 95 1022.9
20260902110802 57 112 0.0 0.0 0.00 0.00 0.00 94 1022.9
20260902110301 57 112 0.0 0.0 0.00 0.00 0.00 94 1022.9
20260902110026 57 112 0.0 0.0 0.00 0.00 0.00 94 1022.9
20260902105253 57 112 0.0 0.0 0.00 0.00 0.00 94 1022.9
20260902104751 57 112 0.0 1.0 0.00 0.00 0.00 94 1023.0
20260902104249 57 112 0.0 1.0 0.00 0.00 0.00 94 1023.0
20260902104021 57 112 0.0 1.0 0.00 0.00 0.00 94 1023.0
20260902102746 56 113 0.0 1.0 0.00 0.00 0.00 94 1023.0
20260902102244 57 112 0.0 1.0 0.00 0.00 0.00 93 1023.1
20260902102017 57 112 0.0 1.0 0.00 0.00 0.00 94 1023.1
20260902101515 57 112 0.0 1.0 0.00 0.00 0.00 94 1023.1
20260902100745 56 112 0.0 1.0 0.00 0.00 0.00 93 1023.1
20260902100241 56 112 0.0 1.0 0.00 0.00 0.00 93 1023.1
20260902095739 56 112 0.0 1.0 0.00 0.00 0.00 93 1023.1
20260902095239 56 112 0.0 0.0 0.00 0.00 0.00 93 1023.1
20260902094739 57 112 0.0 0.0 0.00 0.00 0.00 93 1023.2
20260902094508 57 112 0.0 0.0 0.00 0.00 0.00 93 1023.2
20260902093738 57 112 0.0 1.0 0.00 0.00 0.00 93 1023.1
20260902093232 57 112 0.0 1.0 0.00 0.00 0.00 93 1023.1
20260902092732 57 112 0.0 1.0 0.00 0.00 0.00 92 1023.0
20260902092233 57 112 0.0 1.0 0.00 0.00 0.00 93 1023.0
20260902091733 57 112 0.0 0.0 0.00 0.00 0.00 92 1023.0
20260902091231 57 112 0.0 3.0 0.00 0.00 0.00 92 1023.1
20260902090731 58 112 0.0 3.0 0.00 0.00 0.00 92 1023.1
20260902090225 58 113 1.0 3.0 0.00 0.00 0.00 92 1023.0
20260902085723 58 123 1.0 3.0 0.00 0.00 0.00 93 1023.1
20260902085451 58 100 1.0 3.0 0.00 0.00 0.00 93 1023.1
20260902084719 57 115 0.0 1.0 0.00 0.00 0.00 93 1023.2
20260902084219 57 115 0.0 1.0 0.00 0.00 0.00 92 1023.2
20260902083713 57 115 0.0 1.0 0.00 0.00 0.00 92 1023.4
20260902083211 57 115 0.0 2.0 0.00 0.00 0.00 92 1023.4
20260902082709 57 115 0.0 2.0 0.00 0.00 0.00 92 1023.2
20260902082207 57 148 0.0 2.0 0.00 0.00 0.00 92 1023.4
20260902081159 57 148 0.0 2.0 0.00 0.00 0.00 92 1023.2
20260902080701 57 149 0.0 2.0 0.00 0.00 0.00 92 1023.2
20260902080431 57 149 0.0 2.0 0.00 0.00 0.00 92 1023.4
20260902075933 58 123 0.0 1.0 0.00 0.00 0.00 91 1023.2
20260902075201 58 121 0.0 1.0 0.00 0.00 0.00 91 1023.2
20260902074703 58 120 0.0 0.0 0.00 0.00 0.00 91 1023.2
20260902074427 58 121 0.0 0.0 0.00 0.00 0.00 91 1023.2
20260902073653 58 120 0.0 0.0 0.00 0.00 0.00 91 1023.2
20260902073423 58 120 0.0 1.0 0.00 0.00 0.00 91 1023.2
20260902072649 58 120 0.0 1.0 0.00 0.00 0.00 91 1023.2
20260902072150 58 120 0.0 1.0 0.00 0.00 0.00 90 1023.1
20260902071643 58 120 0.0 1.0 0.00 0.00 0.00 90 1023.2
20260902071140 58 120 0.0 0.0 0.00 0.00 0.00 90 1023.1
20260902070639 58 121 0.0 2.0 0.00 0.00 0.00 90 1023.1
20260902070140 58 120 0.0 2.0 0.00 0.00 0.00 90 1023.2